| time (UTC) | temp C | wind direction | speed KPH | gust KPH | rain 1hr cm | rain 24hr cm | rain mn cm | humidity % | barometer mb |
| 20260510050039 | 8 | 104 | 0.0 | 0.0 | 0.00 | 0.00 | 0.00 | 82 | 1015.2 |
| 20260510044537 | 8 | 104 | 0.0 | 0.0 | 0.00 | 0.00 | 0.00 | 81 | 1015.5 |
| 20260510043035 | 7 | 104 | 0.0 | 1.6 | 0.00 | 0.00 | 0.00 | 81 | 1015.6 |
| 20260510041533 | 7 | 104 | 0.0 | 0.0 | 0.00 | 0.00 | 0.00 | 82 | 1015.7 |
| 20260510040031 | 7 | 104 | 0.0 | 0.0 | 0.00 | 0.00 | 0.00 | 82 | 1015.9 |
| 20260510034528 | 7 | 104 | 0.0 | 0.0 | 0.00 | 0.00 | 0.00 | 80 | 1016.1 |
| 20260510033031 | 7 | 104 | 0.0 | 0.0 | 0.00 | 0.00 | 0.00 | 80 | 1016.0 |
| 20260510031527 | 7 | 104 | 0.0 | 0.0 | 0.00 | 0.00 | 0.00 | 80 | 1016.1 |
| 20260510030023 | 7 | 104 | 0.0 | 0.0 | 0.00 | 0.00 | 0.00 | 80 | 1016.1 |
| 20260510024523 | 7 | 104 | 0.0 | 0.0 | 0.00 | 0.00 | 0.00 | 80 | 1016.2 |
| 20260510023021 | 7 | 104 | 0.0 | 0.0 | 0.00 | 0.00 | 0.00 | 81 | 1016.4 |
| 20260510021546 | 7 | 104 | 0.0 | 0.0 | 0.00 | 0.00 | 0.00 | 81 | 1016.6 |
| 20260510020017 | 7 | 104 | 0.0 | 0.0 | 0.00 | 0.00 | 0.00 | 80 | 1016.8 |
| 20260510014530 | 7 | 104 | 0.0 | 1.6 | 0.00 | 0.00 | 0.00 | 80 | 1016.8 |
| 20260510013013 | 7 | 104 | 0.0 | 3.2 | 0.00 | 0.00 | 0.00 | 80 | 1016.9 |
| 20260510011516 | 7 | 104 | 1.6 | 4.8 | 0.00 | 0.00 | 0.00 | 81 | 1016.9 |
| 20260510010020 | 6 | 160 | 1.6 | 3.2 | 0.00 | 0.00 | 0.00 | 83 | 1017.2 |
| 20260510004506 | 6 | 179 | 0.0 | 0.0 | 0.00 | 0.00 | 0.00 | 85 | 1017.5 |
| 20260510003003 | 6 | 179 | 0.0 | 0.0 | 0.00 | 0.00 | 0.00 | 86 | 1017.9 |
| 20260510001609 | 5 | 179 | 0.0 | 0.0 | 0.00 | 0.00 | 0.00 | 86 | 1018.2 |
| 20260510000058 | 5 | 179 | 0.0 | 0.0 | 0.00 | 0.00 | 0.00 | 86 | 1018.3 |
| 20260509234555 | 5 | 179 | 0.0 | 0.0 | 0.00 | 0.00 | 0.00 | 85 | 1018.5 |
| 20260509233054 | 5 | 179 | 0.0 | 0.0 | 0.00 | 0.00 | 0.00 | 84 | 1018.7 |
| 20260509231552 | 4 | 179 | 0.0 | 0.0 | 0.00 | 0.00 | 0.00 | 86 | 1018.8 |
| 20260509230050 | 3 | 179 | 0.0 | 0.0 | 0.00 | 0.00 | 0.00 | 86 | 1018.9 |
| 20260509224545 | 3 | 179 | 0.0 | 0.0 | 0.00 | 0.00 | 0.00 | 85 | 1019.2 |
| 20260509223044 | 3 | 179 | 0.0 | 0.0 | 0.00 | 0.00 | 0.00 | 84 | 1019.3 |
| 20260509221542 | 3 | 179 | 0.0 | 0.0 | 0.00 | 0.00 | 0.00 | 83 | 1019.3 |
| 20260509220039 | 3 | 179 | 0.0 | 0.0 | 0.00 | 0.00 | 0.00 | 83 | 1019.4 |
| 20260509214542 | 3 | 179 | 0.0 | 0.0 | 0.00 | 0.00 | 0.00 | 82 | 1019.5 |
| 20260509213038 | 4 | 179 | 0.0 | 0.0 | 0.00 | 0.00 | 0.00 | 81 | 1019.5 |
| 20260509211538 | 4 | 179 | 0.0 | 0.0 | 0.00 | 0.00 | 0.00 | 78 | 1019.5 |
| 20260509210044 | 5 | 179 | 0.0 | 0.0 | 0.00 | 0.00 | 0.00 | 76 | 1019.7 |
| 20260509204538 | 6 | 179 | 0.0 | 0.0 | 0.00 | 0.00 | 0.00 | 73 | 1019.7 |
| 20260509203036 | 6 | 179 | 0.0 | 0.0 | 0.00 | 0.00 | 0.00 | 70 | 1019.8 |
| 20260509201539 | 7 | 179 | 0.0 | 0.0 | 0.00 | 0.00 | 0.00 | 69 | 1019.7 |
| 20260509200039 | 8 | 179 | 0.0 | 0.0 | 0.00 | 0.00 | 0.00 | 67 | 1019.8 |
| 20260509194550 | 9 | 179 | 0.0 | 0.0 | 0.00 | 0.00 | 0.00 | 65 | 1019.8 |
| 20260509193035 | 9 | 179 | 0.0 | 1.6 | 0.00 | 0.00 | 0.00 | 63 | 1019.8 |
| 20260509191534 | 10 | 179 | 1.6 | 4.8 | 0.00 | 0.00 | 0.00 | 63 | 1019.7 |
| 20260509190036 | 10 | 143 | 1.6 | 4.8 | 0.00 | 0.00 | 0.00 | 62 | 1019.5 |
| 20260509184535 | 11 | 128 | 1.6 | 6.4 | 0.00 | 0.00 | 0.00 | 59 | 1019.4 |
| 20260509183035 | 11 | 175 | 1.6 | 11.3 | 0.00 | 0.00 | 0.00 | 55 | 1019.5 |
| 20260509181532 | 12 | 156 | 4.8 | 14.5 | 0.00 | 0.00 | 0.00 | 50 | 1019.5 |
| 20260509180042 | 12 | 157 | 8.0 | 12.9 | 0.00 | 0.00 | 0.00 | 47 | 1019.4 |
| 20260509174531 | 12 | 179 | 4.8 | 12.9 | 0.00 | 0.00 | 0.00 | 46 | 1019.5 |
| 20260509173034 | 13 | 123 | 8.0 | 12.9 | 0.00 | 0.00 | 0.00 | 45 | 1019.5 |
| 20260509171535 | 13 | 144 | 8.0 | 17.7 | 0.00 | 0.00 | 0.00 | 44 | 1019.5 |
| 20260509170028 | 13 | 145 | 6.4 | 14.5 | 0.00 | 0.00 | 0.00 | 45 | 1019.6 |
| 20260509164526 | 13 | 140 | 8.0 | 14.5 | 0.00 | 0.00 | 0.00 | 44 | 1019.8 |
| 20260509163027 | 14 | 157 | 6.4 | 14.5 | 0.00 | 0.00 | 0.00 | 44 | 1019.8 |
| 20260509161523 | 14 | 109 | 6.4 | 16.1 | 0.00 | 0.00 | 0.00 | 47 | 1019.8 |
| 20260509160020 | 14 | 115 | 6.4 | 16.1 | 0.00 | 0.00 | 0.00 | 47 | 1020.0 |
| 20260509154518 | 14 | 92 | 11.3 | 19.3 | 0.00 | 0.00 | 0.00 | 47 | 1020.2 |
| 20260509153029 | 14 | 96 | 9.7 | 20.9 | 0.00 | 0.00 | 0.00 | 48 | 1020.4 |
| 20260509151514 | 14 | 77 | 9.7 | 19.3 | 0.00 | 0.00 | 0.00 | 48 | 1020.5 |
| 20260509150017 | 15 | 85 | 8.0 | 20.9 | 0.00 | 0.00 | 0.00 | 48 | 1020.6 |
| 20260509144511 | 15 | 88 | 9.7 | 19.3 | 0.00 | 0.00 | 0.00 | 47 | 1020.8 |
| 20260509143009 | 15 | 65 | 8.0 | 20.9 | 0.00 | 0.00 | 0.00 | 46 | 1020.9 |
| 20260509141507 | 15 | 74 | 9.7 | 19.3 | 0.00 | 0.00 | 0.00 | 47 | 1021.0 |
| 20260509140006 | 15 | 92 | 8.0 | 14.5 | 0.00 | 0.00 | 0.00 | 50 | 1021.2 |
| 20260509134505 | 15 | 136 | 9.7 | 19.3 | 0.00 | 0.00 | 0.00 | 47 | 1021.3 |
| 20260509133004 | 15 | 89 | 12.9 | 19.3 | 0.00 | 0.00 | 0.00 | 48 | 1021.5 |
| 20260509131604 | 15 | 60 | 8.0 | 17.7 | 0.00 | 0.00 | 0.00 | 47 | 1021.7 |
| 20260509130058 | 15 | 69 | 11.3 | 20.9 | 0.00 | 0.00 | 0.00 | 44 | 1021.9 |
| 20260509124557 | 15 | 94 | 6.4 | 14.5 | 0.00 | 0.00 | 0.00 | 44 | 1022.0 |
| 20260509123054 | 15 | 119 | 6.4 | 16.1 | 0.00 | 0.00 | 0.00 | 41 | 1022.2 |
| 20260509121553 | 15 | 108 | 4.8 | 17.7 | 0.00 | 0.00 | 0.00 | 42 | 1022.4 |
| 20260509120053 | 15 | 80 | 8.0 | 17.7 | 0.00 | 0.00 | 0.00 | 41 | 1022.5 |
| 20260509114550 | 14 | 80 | 9.7 | 19.3 | 0.00 | 0.00 | 0.00 | 39 | 1022.5 |
| 20260509113049 | 15 | 53 | 8.0 | 17.7 | 0.00 | 0.00 | 0.00 | 37 | 1022.6 |
| 20260509111551 | 14 | 82 | 4.8 | 16.1 | 0.00 | 0.00 | 0.00 | 37 | 1022.6 |
| 20260509110045 | 14 | 82 | 6.4 | 14.5 | 0.00 | 0.00 | 0.00 | 38 | 1022.8 |
| 20260509104544 | 14 | 93 | 4.8 | 16.1 | 0.00 | 0.00 | 0.00 | 43 | 1022.9 |
| 20260509103047 | 13 | 69 | 3.2 | 14.5 | 0.00 | 0.00 | 0.00 | 43 | 1023.1 |
| 20260509101539 | 13 | 62 | 8.0 | 16.1 | 0.00 | 0.00 | 0.00 | 40 | 1023.1 |
| 20260509100035 | 13 | 69 | 6.4 | 17.7 | 0.00 | 0.00 | 0.00 | 43 | 1023.0 |
| 20260509094534 | 13 | 94 | 6.4 | 14.5 | 0.00 | 0.00 | 0.00 | 44 | 1023.0 |
| 20260509093029 | 13 | 146 | 8.0 | 16.1 | 0.00 | 0.00 | 0.00 | 42 | 1023.0 |
| 20260509091524 | 12 | 116 | 6.4 | 14.5 | 0.00 | 0.00 | 0.00 | 45 | 1023.1 |
| 20260509090034 | 12 | 144 | 8.0 | 14.5 | 0.00 | 0.00 | 0.00 | 44 | 1023.1 |
| 20260509084517 | 12 | 84 | 6.4 | 16.1 | 0.00 | 0.00 | 0.00 | 47 | 1023.1 |
| 20260509083012 | 12 | 71 | 9.7 | 17.7 | 0.00 | 0.00 | 0.00 | 46 | 1023.2 |
| 20260509081509 | 12 | 104 | 6.4 | 16.1 | 0.00 | 0.00 | 0.00 | 47 | 1023.3 |
| 20260509080005 | 12 | 115 | 6.4 | 17.7 | 0.00 | 0.00 | 0.00 | 49 | 1023.3 |
| 20260509074614 | 12 | 71 | 8.0 | 16.1 | 0.00 | 0.00 | 0.00 | 47 | 1023.3 |
| 20260509073107 | 11 | 79 | 9.7 | 17.7 | 0.00 | 0.00 | 0.00 | 49 | 1023.3 |
| 20260509071557 | 11 | 81 | 6.4 | 14.5 | 0.00 | 0.00 | 0.00 | 54 | 1023.4 |
| 20260509070051 | 11 | 83 | 6.4 | 14.5 | 0.00 | 0.00 | 0.00 | 51 | 1023.4 |
| 20260509064544 | 10 | 114 | 4.8 | 14.5 | 0.00 | 0.00 | 0.00 | 53 | 1023.5 |
| 20260509063053 | 10 | 84 | 6.4 | 12.9 | 0.00 | 0.00 | 0.00 | 59 | 1023.5 |
| 20260509061537 | 9 | 46 | 8.0 | 14.5 | 0.00 | 0.00 | 0.00 | 61 | 1023.4 |
| 20260509060030 | 8 | 67 | 6.4 | 12.9 | 0.00 | 0.00 | 0.00 | 63 | 1023.4 |
| 20260509054527 | 8 | 65 | 4.8 | 9.7 | 0.00 | 0.00 | 0.00 | 69 | 1023.5 |
| 20260509053032 | 8 | 38 | 4.8 | 8.0 | 0.00 | 0.00 | 0.00 | 67 | 1023.6 |
| 20260509051518 | 7 | 28 | 1.6 | 6.4 | 0.00 | 0.00 | 0.00 | 67 | 1023.5 |